Location: Hormuz
(27.0871°N, 56.4580°E)
Time: 16:41:56
(UTC+04:30)

LightSail 2 - Visible Passes

Search period start: 06 April 2020 00:00
Search period end: 16 April 2020 00:00
Orbit: 694 x 724 km, 24.0° (Epoch: 05 April)

Date Brightness Start Highest point End Pass type
(mag) Time Alt. Az. Time Alt. Az. Time Alt. Az.
06 Apr 6.7 04:19:51 25° SE 04:19:51 25° SE 04:23:01 10° ESE visible
06 Apr 5.6 05:59:01 10° WSW 06:03:55 52° S 06:08:50 10° E visible
07 Apr 5.7 05:03:04 33° SW 05:04:43 45° SSE 05:09:31 10° E visible
08 Apr 6.7 04:07:22 27° ESE 04:07:22 27° ESE 04:10:10 10° E visible
08 Apr 5.3 05:46:15 13° WSW 05:50:44 60° S 05:55:43 10° E visible
09 Apr 5.3 04:50:32 47° SSW 04:51:30 55° S 04:56:25 10° E visible
10 Apr 6.9 03:54:49 25° ESE 03:54:49 25° ESE 03:57:07 10° E visible
10 Apr 5.3 05:33:42 17° WSW 05:37:32 62° S 05:42:31 10° E visible
11 Apr 5.1 04:37:59 60° SSW 04:38:16 61° S 04:43:15 10° E visible
12 Apr 7.2 03:42:16 21° ESE 03:42:16 21° ESE 03:43:57 10° E visible
12 Apr 5.3 05:21:09 22° WSW 05:24:17 57° S 05:29:14 10° ESE visible
13 Apr 5.3 04:25:28 58° SSE 04:25:28 58° SSE 04:29:59 10° ESE visible
14 Apr 7.6 03:29:50 15° E 03:29:50 15° E 03:30:43 10° E visible
14 Apr 5.4 05:08:43 28° WSW 05:11:00 48° S 05:15:50 10° ESE visible
15 Apr 5.9 04:13:08 40° SE 04:13:08 40° SE 04:16:39 10° ESE visible
15 Apr 6.1 05:52:29 10° WSW 05:56:51 30° SSW 06:01:13 10° SE visible
